IRIDIUM 33

Last updated on Tue Sep 22 2026 00:02:43 GMT+0000 (Coordinated Universal Time)

1 24946U 97051C 26264.36984575 .00000145 00000+0 43754-4 0 9990 2 24946 86.3864 309.5995 0008562 26.8274 333.3363 14.35178939518886
UTC large
Height (km)
Speed (km/s)
/
Latitude / Longitude
Inclination (degrees)
Orbital Period (minutes)
Azimuth
Elevation
Range (km)
Doppler Factor

Next 0 passes for location: London (51.5072 / 0.1276)

No passes found over London.
IRIDIUM 33